OneWeb SL0309

operational
NORAD ID: 49095 Int'l Des: 2021-075 Owner: ONEWEBN Country: UK Constellation: oneweb
LEOCIRCULARPOLARONEWEB_TYPE

About OneWeb SL0309

Description loading...

Live Position

Loading 3D Globe...

Upcoming Passes

Altitude History

Altitude vs Time

uPlot chart will show altitude changes over time

Two-Line Element Set

1 49095U 21075W 25258.27602828 .00000019 00000-0 16871-4 0 9996
2 49095 87.9049 60.5378 0001727 106.9581 253.1739 13.17648502197376
Epoch: Sep 15, 2025 • Age: 7 hours

Current Status

Altitude 1221.8 km
Velocity 7.24 km/s
Sub-Earth Point -73.36°S, 52.11°E
Launch Date Aug 21, 2021
Age 4 years
Type internet

Technical Details

Classification Payload
Mass 148.00 kg
Dry Mass 140.00 kg
Total Mass 148.00 kg
Length 1.30 m
Diameter 1.00 m
Span 5.00 m
Shape Trapezoid+2 pan
Manufacturer ONEWUS
Bus Type ARROW
Phase Status In Orbit
Owner/State ONEWEBN/UK

Large Constellations

Loading constellations...